Time,TemperatureF,DewpointF,PressureIn,WindDirection,WindDirectionDegrees,WindSpeedMPH,WindSpeedGustMPH,Humidity,HourlyPrecipIn,Conditions,Clouds,dailyrainin,SoftwareType,DateUTC
2013-04-03 00:05:00,158.0,0.0,29.98,East,84,4.0,5.0,0,0.00,,---,0.00,VWS V14.00,2013-04-03 05:05:00,
2013-04-03 00:15:00,158.0,0.0,29.97,East,84,6.0,6.0,0,0.00,,---,0.00,VWS V14.00,2013-04-03 05:15:00,
2013-04-03 00:25:00,158.0,0.0,29.97,ENE,78,5.0,6.0,0,0.00,,---,0.00,VWS V14.00,2013-04-03 05:25:00,
2013-04-03 00:35:00,158.0,0.0,29.97,ENE,61,9.0,10.0,0,0.00,,---,0.00,VWS V14.00,2013-04-03 05:35:00,
2013-04-03 00:45:00,158.0,0.0,29.97,ENE,59,10.0,11.0,0,0.00,,---,0.00,VWS V14.00,2013-04-03 05:45:00,
2013-04-03 00:55:00,158.0,0.0,29.96,NE,55,9.0,11.0,0,0.00,,---,0.00,VWS V14.00,2013-04-03 05:55:00,
2013-04-03 01:05:00,158.0,0.0,29.96,ENE,61,6.0,11.0,0,0.00,,---,0.00,VWS V14.00,2013-04-03 06:05:00,
2013-04-03 01:15:00,158.0,0.0,29.95,ENE,76,10.0,11.0,0,0.00,,---,0.00,VWS V14.00,2013-04-03 06:15:00,
2013-04-03 01:25:00,158.0,0.0,29.93,East,80,11.0,12.0,0,0.00,,---,0.00,VWS V14.00,2013-04-03 06:25:00,
2013-04-03 01:35:00,158.0,0.0,29.92,ENE,71,10.0,12.0,0,0.00,,---,0.00,VWS V14.00,2013-04-03 06:35:00,
2013-04-03 01:45:00,158.0,0.0,29.93,East,81,9.0,11.0,0,0.00,,---,0.00,VWS V14.00,2013-04-03 06:45:00,
2013-04-03 01:55:00,158.0,0.0,29.94,East,80,6.0,9.0,0,0.00,,---,0.00,VWS V14.00,2013-04-03 06:55:00,
2013-04-03 02:05:00,158.0,0.0,29.94,ENE,71,6.0,7.0,0,0.00,,---,0.00,VWS V14.00,2013-04-03 07:05:00,
2013-04-03 02:15:00,158.0,0.0,29.94,ENE,63,6.0,9.0,0,0.00,,---,0.00,VWS V14.00,2013-04-03 07:15:00,
2013-04-03 02:25:00,158.0,0.0,29.92,ENE,63,10.0,11.0,0,0.00,,---,0.00,VWS V14.00,2013-04-03 07:25:00,
2013-04-03 02:35:00,158.0,0.0,29.92,ENE,67,7.0,11.0,0,0.00,,---,0.00,VWS V14.00,2013-04-03 07:35:00,
2013-04-03 02:45:00,158.0,0.0,29.92,NE,56,6.0,10.0,0,0.00,,---,0.00,VWS V14.00,2013-04-03 07:45:00,
2013-04-03 02:55:00,158.0,0.0,29.92,ENE,65,7.0,10.0,0,0.00,,---,0.00,VWS V14.00,2013-04-03 07:55:00,
2013-04-03 03:05:00,158.0,0.0,29.92,ENE,63,11.0,12.0,0,0.00,,---,0.00,VWS V14.00,2013-04-03 08:05:00,
2013-04-03 03:15:00,158.0,0.0,29.92,ENE,68,10.0,13.0,0,0.00,,---,0.00,VWS V14.00,2013-04-03 08:15:00,
2013-04-03 03:25:00,158.0,0.0,29.90,ENE,61,11.0,13.0,0,0.00,,---,0.00,VWS V14.00,2013-04-03 08:25:00,
2013-04-03 03:35:00,158.0,0.0,29.90,ENE,59,11.0,13.0,0,0.00,,---,0.00,VWS V14.00,2013-04-03 08:35:00,
2013-04-03 03:45:00,158.0,0.0,29.90,ENE,57,11.0,13.0,0,0.00,,---,0.00,VWS V14.00,2013-04-03 08:45:00,
2013-04-03 03:55:00,158.0,0.0,29.90,NE,48,10.0,12.0,0,0.00,,---,0.00,VWS V14.00,2013-04-03 08:55:00,
2013-04-03 04:15:00,158.0,0.0,29.90,NE,44,12.0,15.0,0,0.00,,---,0.00,VWS V14.00,2013-04-03 09:15:00,
2013-04-03 04:25:00,158.0,0.0,29.90,NE,48,11.0,14.0,0,0.00,,---,0.00,VWS V14.00,2013-04-03 09:25:00,
2013-04-03 04:35:00,158.0,0.0,29.90,NE,40,14.0,15.0,0,0.00,,---,0.00,VWS V14.00,2013-04-03 09:35:00,
2013-04-03 04:45:00,158.0,0.0,29.90,NE,46,15.0,16.0,0,0.00,,---,0.00,VWS V14.00,2013-04-03 09:45:00,
2013-04-03 04:55:00,158.0,0.0,29.90,NE,46,12.0,15.0,0,0.00,,---,0.00,VWS V14.00,2013-04-03 09:55:00,
2013-04-03 05:05:00,158.0,0.0,29.90,NE,44,11.0,15.0,0,0.00,,---,0.00,VWS V14.00,2013-04-03 10:05:00,
2013-04-03 05:15:00,158.0,0.0,29.92,NE,47,11.0,13.0,0,0.00,,---,0.00,VWS V14.00,2013-04-03 10:15:00,
2013-04-03 05:25:00,158.0,0.0,29.91,NE,38,12.0,13.0,0,0.53,,---,0.05,VWS V14.00,2013-04-03 10:25:00,
2013-04-03 05:35:00,158.0,0.0,29.92,NE,49,10.0,13.0,0,0.59,,---,0.13,VWS V14.00,2013-04-03 10:35:00,
2013-04-03 05:45:00,158.0,0.0,29.94,ENE,60,12.0,13.0,0,0.27,,---,0.18,VWS V14.00,2013-04-03 10:45:00,
2013-04-03 05:55:00,158.0,0.0,29.94,ENE,57,12.0,14.0,0,0.17,,---,0.23,VWS V14.00,2013-04-03 10:55:00,
2013-04-03 06:05:00,158.0,0.0,29.95,NE,39,11.0,15.0,0,0.26,,---,0.26,VWS V14.00,2013-04-03 11:05:00,
2013-04-03 06:15:00,158.0,0.0,29.96,NNE,15,13.0,14.0,0,0.15,,---,0.28,VWS V14.00,2013-04-03 11:15:00,
2013-04-03 06:25:00,158.0,0.0,29.96,North,355,16.0,17.0,0,0.12,,---,0.30,VWS V14.00,2013-04-03 11:25:00,
2013-04-03 06:35:00,158.0,0.0,29.97,North,355,15.0,18.0,0,0.06,,---,0.30,VWS V14.00,2013-04-03 11:35:00,
2013-04-03 06:45:00,158.0,0.0,29.96,North,5,14.0,16.0,0,0.13,,---,0.32,VWS V14.00,2013-04-03 11:45:00,
2013-04-03 06:55:00,158.0,0.0,29.96,North,9,15.0,16.0,0,0.06,,---,0.33,VWS V14.00,2013-04-03 11:55:00,
2013-04-03 07:05:00,158.0,0.0,29.97,NNE,27,15.0,16.0,0,0.07,,---,0.34,VWS V14.00,2013-04-03 12:05:00,
2013-04-03 07:15:00,158.0,0.0,29.97,NNE,26,14.0,16.0,0,0.23,,---,0.38,VWS V14.00,2013-04-03 12:15:00,
2013-04-03 07:25:00,158.0,0.0,29.98,NNE,24,15.0,17.0,0,0.21,,---,0.41,VWS V14.00,2013-04-03 12:25:00,
2013-04-03 07:35:00,158.0,0.0,29.99,NNE,24,13.0,17.0,0,0.12,,---,0.43,VWS V14.00,2013-04-03 12:35:00,
2013-04-03 07:45:00,158.0,0.0,29.99,NNE,24,14.0,15.0,0,0.19,,---,0.46,VWS V14.00,2013-04-03 12:45:00,
2013-04-03 07:55:00,158.0,0.0,29.99,NNE,26,14.0,17.0,0,0.20,,---,0.48,VWS V14.00,2013-04-03 12:55:00,
2013-04-03 08:05:00,158.0,0.0,29.98,NNE,32,15.0,16.0,0,0.23,,---,0.52,VWS V14.00,2013-04-03 13:05:00,
2013-04-03 08:15:00,158.0,0.0,29.97,NE,36,17.0,21.0,0,0.14,,---,0.54,VWS V14.00,2013-04-03 13:15:00,
2013-04-03 08:25:00,158.0,0.0,29.96,NE,35,20.0,21.0,0,0.08,,---,0.55,VWS V14.00,2013-04-03 13:25:00,
2013-04-03 08:35:00,158.0,0.0,29.96,NE,35,18.0,23.0,0,0.07,,---,0.56,VWS V14.00,2013-04-03 13:35:00,
2013-04-03 08:45:00,158.0,0.0,29.97,NE,42,16.0,20.0,0,0.07,,---,0.58,VWS V14.00,2013-04-03 13:45:00,
2013-04-03 08:55:00,158.0,0.0,29.96,NE,40,16.0,21.0,0,0.07,,---,0.59,VWS V14.00,2013-04-03 13:55:00,
2013-04-03 09:05:00,158.0,0.0,29.95,NE,47,18.0,24.0,0,0.09,,---,0.61,VWS V14.00,2013-04-03 14:05:00,
2013-04-03 09:15:00,158.0,0.0,29.95,NE,53,17.0,24.0,0,0.10,,---,0.62,VWS V14.00,2013-04-03 14:15:00,
2013-04-03 09:25:00,158.0,0.0,29.95,NE,52,19.0,25.0,0,0.13,,---,0.64,VWS V14.00,2013-04-03 14:25:00,
2013-04-03 09:35:00,158.0,0.0,29.96,NE,43,21.0,24.0,0,0.11,,---,0.66,VWS V14.00,2013-04-03 14:35:00,
2013-04-03 09:45:00,158.0,0.0,29.97,NE,45,17.0,23.0,0,0.07,,---,0.67,VWS V14.00,2013-04-03 14:45:00,
2013-04-03 09:55:00,158.0,0.0,29.96,NE,49,18.0,24.0,0,0.07,,---,0.69,VWS V14.00,2013-04-03 14:55:00,
2013-04-03 10:05:00,158.0,0.0,29.97,NE,36,18.0,21.0,0,0.08,,---,0.70,VWS V14.00,2013-04-03 15:05:00,
2013-04-03 10:15:00,158.0,0.0,29.97,NE,34,15.0,18.0,0,0.06,,---,0.71,VWS V14.00,2013-04-03 15:15:00,
2013-04-03 10:25:00,158.0,0.0,29.98,NNE,24,11.0,18.0,0,0.09,,---,0.73,VWS V14.00,2013-04-03 15:25:00,
2013-04-03 10:35:00,158.0,0.0,30.00,NE,36,11.0,18.0,0,0.09,,---,0.75,VWS V14.00,2013-04-03 15:35:00,
2013-04-03 10:45:00,158.0,0.0,30.02,NE,42,13.0,16.0,0,0.21,,---,0.78,VWS V14.00,2013-04-03 15:45:00,
2013-04-03 10:55:00,158.0,0.0,30.01,NNE,31,14.0,16.0,0,0.18,,---,0.81,VWS V14.00,2013-04-03 15:55:00,
2013-04-03 11:05:00,158.0,0.0,30.02,NNE,23,11.0,16.0,0,0.19,,---,0.84,VWS V14.00,2013-04-03 16:05:00,
2013-04-03 11:15:00,158.0,0.0,30.02,North,355,9.0,16.0,0,0.15,,---,0.87,VWS V14.00,2013-04-03 16:15:00,
2013-04-03 11:25:00,158.0,0.0,30.02,NNE,17,18.0,18.0,0,0.11,,---,0.89,VWS V14.00,2013-04-03 16:25:00,
2013-04-03 11:35:00,158.0,0.0,30.01,NE,34,14.0,21.0,0,0.22,,---,0.92,VWS V14.00,2013-04-03 16:35:00,
2013-04-03 11:45:00,158.0,0.0,30.02,NNE,14,11.0,17.0,0,0.14,,---,0.94,VWS V14.00,2013-04-03 16:45:00,
2013-04-03 11:55:00,158.0,0.0,30.02,NNE,23,13.0,18.0,0,0.09,,---,0.96,VWS V14.00,2013-04-03 16:55:00,
2013-04-03 12:05:00,158.0,0.0,30.02,North,5,10.0,17.0,0,0.12,,---,0.98,VWS V14.00,2013-04-03 17:05:00,
2013-04-03 12:15:00,158.0,0.0,30.02,NE,34,9.0,15.0,0,0.15,,---,1.00,VWS V14.00,2013-04-03 17:15:00,
2013-04-03 12:25:00,158.0,0.0,30.02,NNE,25,15.0,17.0,0,0.21,,---,1.03,VWS V14.00,2013-04-03 17:25:00,
2013-04-03 12:35:00,158.0,0.0,30.02,ENE,61,13.0,20.0,0,0.14,,---,1.06,VWS V14.00,2013-04-03 17:35:00,
2013-04-03 12:45:00,158.0,0.0,30.02,ENE,66,17.0,17.0,0,0.14,,---,1.09,VWS V14.00,2013-04-03 17:45:00,
2013-04-03 12:55:00,158.0,0.0,30.02,ENE,69,10.0,17.0,0,0.17,,---,1.13,VWS V14.00,2013-04-03 17:55:00,
2013-04-03 13:05:00,158.0,0.0,30.02,ENE,61,11.0,12.0,0,0.47,,---,1.18,VWS V14.00,2013-04-03 18:05:00,
2013-04-03 13:15:00,158.0,0.0,30.00,East,79,16.0,19.0,0,0.20,,---,1.22,VWS V14.00,2013-04-03 18:15:00,
2013-04-03 13:25:00,158.0,0.0,29.97,ENE,78,20.0,22.0,0,0.10,,---,1.24,VWS V14.00,2013-04-03 18:25:00,
2013-04-03 13:35:00,158.0,0.0,29.92,ENE,72,30.0,34.0,0,0.05,,---,1.24,VWS V14.00,2013-04-03 18:35:00,
2013-04-03 13:45:00,158.0,0.0,29.82,ENE,77,33.0,38.0,0,0.00,,---,1.25,VWS V14.00,2013-04-03 18:45:00,
2013-04-03 13:55:00,158.0,0.0,29.77,East,86,29.0,40.0,0,0.00,,---,1.25,VWS V14.00,2013-04-03 18:55:00,
2013-04-03 14:05:00,158.0,0.0,29.73,East,90,30.0,39.0,0,0.00,,---,1.25,VWS V14.00,2013-04-03 19:05:00,
2013-04-03 14:15:00,158.0,0.0,29.76,East,84,35.0,36.0,0,0.00,,---,1.25,VWS V14.00,2013-04-03 19:15:00,
2013-04-03 14:25:00,158.0,0.0,29.75,East,94,27.0,36.0,0,0.00,,---,1.25,VWS V14.00,2013-04-03 19:25:00,
2013-04-03 14:35:00,158.0,0.0,29.74,East,92,25.0,33.0,0,0.00,,---,1.25,VWS V14.00,2013-04-03 19:35:00,
2013-04-03 14:45:00,158.0,0.0,29.74,East,89,21.0,31.0,0,0.00,,---,1.25,VWS V14.00,2013-04-03 19:45:00,
2013-04-03 14:55:00,158.0,0.0,29.77,ENE,71,16.0,26.0,0,0.00,,---,1.25,VWS V14.00,2013-04-03 19:55:00,
2013-04-03 15:05:00,158.0,0.0,29.79,NE,36,16.0,25.0,0,0.00,,---,1.25,VWS V14.00,2013-04-03 20:05:00,
2013-04-03 15:15:00,158.0,0.0,29.78,ENE,59,20.0,29.0,0,0.00,,---,1.25,VWS V14.00,2013-04-03 20:15:00,
2013-04-03 15:25:00,158.0,0.0,29.77,NE,53,14.0,24.0,0,0.00,,---,1.25,VWS V14.00,2013-04-03 20:25:00,
2013-04-03 15:35:00,158.0,0.0,29.79,NNE,28,15.0,21.0,0,0.00,,---,1.25,VWS V14.00,2013-04-03 20:35:00,
2013-04-03 15:45:00,158.0,0.0,29.79,ENE,59,11.0,16.0,0,0.00,,---,1.25,VWS V14.00,2013-04-03 20:45:00,
2013-04-03 15:55:00,158.0,0.0,29.79,NNE,23,9.0,15.0,0,0.00,,---,1.25,VWS V14.00,2013-04-03 20:55:00,
2013-04-03 16:05:00,158.0,0.0,29.80,ENE,65,10.0,14.0,0,0.00,,---,1.25,VWS V14.00,2013-04-03 21:05:00,
2013-04-03 16:15:00,158.0,0.0,29.80,NE,47,13.0,14.0,0,0.00,,---,1.25,VWS V14.00,2013-04-03 21:15:00,
2013-04-03 16:25:00,158.0,0.0,29.81,NE,49,9.0,16.0,0,0.00,,---,1.25,VWS V14.00,2013-04-03 21:25:00,
2013-04-03 16:35:00,158.0,0.0,29.80,NNE,26,11.0,16.0,0,0.00,,---,1.25,VWS V14.00,2013-04-03 21:35:00,
2013-04-03 16:45:00,158.0,0.0,29.81,NE,40,13.0,16.0,0,0.00,,---,1.25,VWS V14.00,2013-04-03 21:45:00,
2013-04-03 16:55:00,158.0,0.0,29.80,NNE,32,12.0,17.0,0,0.00,,---,1.25,VWS V14.00,2013-04-03 21:55:00,
2013-04-03 17:05:00,158.0,0.0,29.80,NNE,30,7.0,16.0,0,0.00,,---,1.25,VWS V14.00,2013-04-03 22:05:00,
2013-04-03 17:15:00,158.0,0.0,29.82,North,11,12.0,15.0,0,0.00,,---,1.25,VWS V14.00,2013-04-03 22:15:00,
2013-04-03 17:25:00,158.0,0.0,29.82,North,9,12.0,15.0,0,0.00,,---,1.25,VWS V14.00,2013-04-03 22:25:00,
2013-04-03 17:35:00,158.0,0.0,29.82,NNE,14,12.0,14.0,0,0.00,,---,1.25,VWS V14.00,2013-04-03 22:35:00,
2013-04-03 17:45:00,158.0,0.0,29.83,NNE,26,9.0,15.0,0,0.00,,---,1.25,VWS V14.00,2013-04-03 22:45:00,
2013-04-03 17:55:00,158.0,0.0,29.83,NNW,345,11.0,13.0,0,0.00,,---,1.25,VWS V14.00,2013-04-03 22:55:00,
2013-04-03 18:05:00,158.0,0.0,29.84,NNW,344,13.0,16.0,0,0.00,,---,1.25,VWS V14.00,2013-04-03 23:05:00,
2013-04-03 18:15:00,158.0,0.0,29.85,NNW,347,13.0,14.0,0,0.00,,---,1.25,VWS V14.00,2013-04-03 23:15:00,
2013-04-03 18:25:00,158.0,0.0,29.86,North,350,14.0,15.0,0,0.00,,---,1.25,VWS V14.00,2013-04-03 23:25:00,
2013-04-03 18:35:00,158.0,0.0,29.85,NNW,348,12.0,16.0,0,0.00,,---,1.25,VWS V14.00,2013-04-03 23:35:00,
2013-04-03 18:45:00,158.0,0.0,29.86,North,360,14.0,16.0,0,0.00,,---,1.25,VWS V14.00,2013-04-03 23:45:00,
2013-04-03 18:55:00,158.0,0.0,29.86,North,355,12.0,17.0,0,0.00,,---,1.25,VWS V14.00,2013-04-03 23:55:00,
2013-04-03 19:05:00,158.0,0.0,29.87,North,355,17.0,17.0,0,0.00,,---,1.25,VWS V14.00,2013-04-04 00:05:00,
2013-04-03 19:15:00,158.0,0.0,29.87,NNW,345,16.0,19.0,0,0.00,,---,1.25,VWS V14.00,2013-04-04 00:15:00,
2013-04-03 19:25:00,158.0,0.0,29.88,NNW,340,16.0,19.0,0,0.00,,---,1.25,VWS V14.00,2013-04-04 00:25:00,
2013-04-03 19:35:00,158.0,0.0,29.88,North,355,16.0,20.0,0,0.00,,---,1.25,VWS V14.00,2013-04-04 00:35:00,
2013-04-03 19:45:00,158.0,0.0,29.89,NNW,342,20.0,21.0,0,0.00,,---,1.25,VWS V14.00,2013-04-04 00:45:00,
2013-04-03 20:05:00,158.0,0.0,29.90,North,355,14.0,21.0,0,0.00,,---,1.25,VWS V14.00,2013-04-04 01:05:00,
2013-04-03 20:15:00,158.0,0.0,29.90,North,360,18.0,20.0,0,0.00,,---,1.25,VWS V14.00,2013-04-04 01:15:00,
2013-04-03 20:25:00,158.0,0.0,29.91,North,355,15.0,20.0,0,0.00,,---,1.25,VWS V14.00,2013-04-04 01:25:00,
2013-04-03 20:35:00,158.0,0.0,29.91,North,351,15.0,19.0,0,0.00,,---,1.25,VWS V14.00,2013-04-04 01:35:00,
2013-04-03 20:45:00,158.0,0.0,29.91,NNW,340,13.0,19.0,0,0.00,,---,1.25,VWS V14.00,2013-04-04 01:45:00,
2013-04-03 20:55:00,158.0,0.0,29.92,NNW,345,13.0,17.0,0,0.00,,---,1.25,VWS V14.00,2013-04-04 01:55:00,
2013-04-03 21:05:00,158.0,0.0,29.92,NNW,346,14.0,17.0,0,0.00,,---,1.25,VWS V14.00,2013-04-04 02:05:00,
2013-04-03 21:25:00,158.0,0.0,29.92,NNE,15,14.0,17.0,0,0.00,,---,1.25,VWS V14.00,2013-04-04 02:25:00,
2013-04-03 21:35:00,158.0,0.0,29.92,North,350,14.0,18.0,0,0.00,,---,1.25,VWS V14.00,2013-04-04 02:35:00,
2013-04-03 21:45:00,158.0,0.0,29.92,North,350,14.0,17.0,0,0.00,,---,1.25,VWS V14.00,2013-04-04 02:45:00,
2013-04-03 21:55:00,158.0,0.0,29.93,North,360,12.0,16.0,0,0.00,,---,1.25,VWS V14.00,2013-04-04 02:55:00,
2013-04-03 22:05:00,158.0,0.0,29.93,North,360,11.0,14.0,0,0.00,,---,1.25,VWS V14.00,2013-04-04 03:05:00,
2013-04-03 22:15:00,158.0,0.0,29.92,North,355,13.0,15.0,0,0.00,,---,1.25,VWS V14.00,2013-04-04 03:15:00,
2013-04-03 22:25:00,158.0,0.0,29.92,North,5,12.0,16.0,0,0.00,,---,1.25,VWS V14.00,2013-04-04 03:25:00,
2013-04-03 22:35:00,158.0,0.0,29.91,NNE,17,11.0,14.0,0,0.00,,---,1.25,VWS V14.00,2013-04-04 03:35:00,
2013-04-03 22:45:00,158.0,0.0,29.91,NNE,13,11.0,12.0,0,0.00,,---,1.25,VWS V14.00,2013-04-04 03:45:00,
2013-04-03 22:55:00,158.0,0.0,29.92,North,5,7.0,13.0,0,0.00,,---,1.25,VWS V14.00,2013-04-04 03:55:00,
2013-04-03 23:05:00,158.0,0.0,29.92,North,5,10.0,12.0,0,0.00,,---,1.25,VWS V14.00,2013-04-04 04:05:00,
2013-04-03 23:15:00,158.0,0.0,29.92,North,9,9.0,12.0,0,0.00,,---,1.25,VWS V14.00,2013-04-04 04:15:00,
2013-04-03 23:25:00,158.0,0.0,29.92,NNE,19,6.0,11.0,0,0.00,,---,1.25,VWS V14.00,2013-04-04 04:25:00,
2013-04-03 23:35:00,158.0,0.0,29.92,North,5,7.0,9.0,0,0.00,,---,1.25,VWS V14.00,2013-04-04 04:35:00,
2013-04-03 23:45:00,158.0,0.0,29.92,North,9,7.0,10.0,0,0.00,,---,1.25,VWS V14.00,2013-04-04 04:45:00,
2013-04-03 23:55:00,158.0,0.0,29.91,North,5,6.0,10.0,0,0.00,,---,0.00,VWS V14.00,2013-04-04 04:55:00,